Location: Dalton
(34.7700°N, 84.9700°W)
Time: 17:48:06
(UTC-04:00)

Vanguard 1 Rocket - Visible Passes

Search period start: 20 October 2017 00:00
Search period end: 30 October 2017 00:00
Orbit: 655 x 4222 km, 34.3° (Epoch: 19 October)

Date Brightness Start Highest point End Pass type
(mag) Time Alt. Az. Time Alt. Az. Time Alt. Az.
20 Oct 11.0 04:29:32 10° SSE 04:32:26 11° SSE 04:35:02 10° SE visible
20 Oct 9.6 06:50:29 10° SW 06:59:59 32° SSE 07:05:42 10° E visible
21 Oct 10.2 05:38:16 10° SSW 05:48:14 24° SSE 05:54:35 10° ESE visible
22 Oct 10.7 04:26:59 10° S 04:35:57 17° SSE 04:42:21 10° ESE visible
22 Oct 9.2 06:52:30 10° SW 07:03:24 43° SSE 07:09:28 10° E visible
23 Oct 11.2 03:20:40 11° SSE 03:23:07 11° SSE 03:26:50 10° SE visible
23 Oct 9.8 05:39:27 10° SSW 05:51:40 33° SSE 05:58:44 10° E visible
24 Oct 10.4 04:32:04 18° S 04:39:23 25° SSE 04:47:17 10° ESE visible
24 Oct 8.9 06:54:50 10° SW 07:06:45 54° SSE 07:13:05 10° E visible
25 Oct 10.9 03:25:54 18° SSE 03:26:36 18° SSE 03:34:24 10° ESE visible
25 Oct 9.5 05:43:17 14° SW 05:55:02 43° SSE 06:02:33 10° E visible
26 Oct 10.1 04:36:59 26° S 04:42:45 33° SSE 04:51:30 10° E visible
26 Oct 8.7 06:57:23 10° WSW 07:10:04 65° SSE 07:16:36 10° E visible
27 Oct 10.7 03:30:33 25° SSE 03:30:33 25° SSE 03:39:32 10° E visible
27 Oct 9.3 05:47:54 20° SW 05:58:20 53° SSE 06:06:11 10° E visible
28 Oct 11.2 02:24:00 12° ESE 02:24:00 12° ESE 02:25:39 10° ESE visible
28 Oct 9.9 04:41:21 35° S 04:46:02 42° SSE 04:55:22 10° E visible
28 Oct 8.6 07:00:08 10° WSW 07:13:24 75° SSE 07:20:06 10° E visible
29 Oct 10.4 03:34:43 32° SE 03:34:43 32° SE 03:43:53 10° E visible
29 Oct 9.1 05:52:03 25° SW 06:01:36 64° SSE 06:09:42 10° E visible
